DW2686 Weather Reports


time (UTC)temp
C
wind
direction
speed
KPH
gust
KPH
rain 1hr
cm
rain 24hr
cm
rain mn
cm
humidity
%
barometer
mb
20260906012040 25 205 0.0 0.0 0.00 1.22 1.22 95 1009.5
20260906011538 26 205 0.0 3.2 0.00 1.22 1.22 95 1009.4
20260906011037 26 205 0.0 3.2 0.00 1.22 1.22 95 1009.2
20260906010538 26 205 0.0 0.0 0.00 1.22 1.22 94 1009.4
20260906010037 26 205 0.0 0.0 0.00 1.22 1.22 94 1009.4
20260906005536 26 205 0.0 0.0 0.00 1.22 1.22 94 1009.4
20260906005038 26 205 0.0 3.2 0.00 1.22 1.22 94 1009.4
20260906004537 26 205 0.0 1.6 0.00 1.22 1.22 94 1009.5
20260906004036 26 205 0.0 0.0 0.00 1.22 1.22 93 1009.4
20260906003536 26 205 0.0 0.0 0.00 1.22 1.22 93 1009.3
20260906003036 26 205 0.0 3.2 0.00 1.22 1.22 93 1009.3
20260906002535 26 205 0.0 3.2 0.00 1.22 1.22 93 1009.2
20260906002037 26 205 0.0 1.6 0.00 1.22 1.22 92 1009.2
20260906001538 27 205 0.0 3.2 0.00 1.22 1.22 92 1009.3
20260906001135 27 205 0.0 3.2 0.00 1.22 1.22 92 1009.3
20260906000535 27 205 0.0 3.2 0.00 1.22 1.22 91 1009.4
20260906000035 27 205 0.0 0.0 0.00 1.22 1.22 92 1009.5
20260905235534 27 205 0.0 0.0 0.00 1.22 1.22 92 1009.4
20260905235035 27 205 0.0 0.0 0.00 1.22 1.22 92 1009.4
20260905234535 27 205 0.0 3.2 0.00 1.22 1.22 91 1009.3
20260905234034 27 205 0.0 3.2 0.00 1.22 1.22 91 1009.3
20260905233534 27 205 0.0 1.6 0.00 1.22 1.22 91 1009.3
20260905233034 27 205 0.0 3.2 0.00 1.22 1.22 91 1009.2
20260905232534 27 205 0.0 3.2 0.00 1.22 1.22 91 1009.2
20260905232034 27 205 0.0 3.2 0.00 1.22 1.22 90 1009.2
20260905231536 28 205 0.0 3.2 0.00 1.22 1.22 92 1009.2
20260905231033 28 205 0.0 3.2 0.00 1.22 1.22 92 1009.1
20260905230533 28 205 0.0 3.2 0.00 1.22 1.22 91 1009.2
20260905230034 28 152 0.0 3.2 0.00 1.22 1.22 90 1009.1
20260905225532 28 42 0.0 3.2 0.00 1.22 1.22 91 1009.1
20260905225032 28 301 0.0 3.2 0.00 1.22 1.22 90 1009.1
20260905224605 28 232 0.0 0.0 0.00 1.22 1.22 89 1009.2
20260905224032 28 232 0.0 1.6 0.00 1.22 1.22 89 1009.2
20260905223531 28 232 0.0 3.2 0.00 1.22 1.22 89 1009.2
20260905223030 28 232 0.0 3.2 0.00 1.22 1.22 87 1009.3
20260905222531 28 232 0.0 3.2 0.00 1.22 1.22 85 1009.4
20260905222030 28 232 0.0 3.2 0.00 1.22 1.22 86 1009.4
20260905221530 28 232 0.0 4.8 0.00 1.22 1.22 85 1009.3
20260905221032 28 232 0.0 4.8 0.00 1.22 1.22 83 1009.5
20260905220529 28 240 0.0 6.4 0.00 1.22 1.22 85 1009.5
20260905220029 28 197 0.0 6.4 0.00 1.22 1.22 83 1009.6
20260905215529 29 190 1.6 8.0 0.00 1.22 1.22 84 1009.6
20260905215030 29 206 1.6 8.0 0.00 1.22 1.22 84 1009.6
20260905214528 30 194 1.6 6.4 0.00 1.22 1.22 82 1009.6
20260905214027 29 221 0.0 3.2 0.00 1.22 1.22 85 1009.7
20260905213526 29 263 0.0 3.2 0.00 1.22 1.22 83 1009.7
20260905213027 29 191 0.0 3.2 0.00 1.22 1.22 84 1009.8
20260905212533 29 235 0.0 3.2 0.00 1.22 1.22 84 1009.9
20260905212026 29 262 0.0 6.4 0.00 1.22 1.22 84 1010.0
20260905211540 28 175 0.0 6.4 0.00 1.22 1.22 84 1010.0
20260905211028 28 214 0.0 4.8 0.00 1.22 1.22 88 1010.0
20260905210525 28 185 1.6 3.2 0.00 1.22 1.22 89 1009.9
20260905210038 27 274 0.0 3.2 0.00 1.22 1.22 92 1009.9
20260905205525 27 274 1.6 6.4 0.00 1.22 1.22 93 1009.9
20260905205025 27 211 0.0 6.4 0.00 1.22 1.22 93 1009.8
20260905204525 26 222 3.2 6.4 0.03 1.22 1.22 94 1009.8
20260905204024 26 205 1.6 6.4 0.03 1.22 1.22 94 1009.8
20260905203525 26 191 1.6 4.8 0.03 1.22 1.22 94 1009.8
20260905203026 26 223 0.0 6.4 0.03 1.22 1.22 94 1009.8
20260905202526 26 180 1.6 6.4 0.03 1.22 1.22 94 1009.9
20260905202022 26 223 1.6 4.8 0.05 1.22 1.22 94 1010.0
20260905201523 26 250 0.0 4.8 0.05 1.22 1.22 94 1010.0
20260905201021 26 214 1.6 4.8 0.05 1.22 1.22 94 1010.0
20260905200526 26 149 0.0 4.8 0.08 1.22 1.22 94 1010.3
20260905200026 26 217 1.6 4.8 0.08 1.22 1.22 94 1010.4
20260905195521 25 176 1.6 6.4 0.10 1.22 1.22 94 1010.4
20260905195023 25 233 3.2 6.4 0.15 1.22 1.22 93 1010.5
20260905194520 26 221 0.0 9.7 0.41 1.19 1.19 93 1010.5
20260905194020 25 153 0.0 9.7 0.56 1.19 1.19 92 1010.3
20260905193520 26 159 0.0 4.8 0.97 1.19 1.19 92 1010.6
20260905193018 26 159 0.0 6.4 1.19 1.19 1.19 92 1010.7
20260905192519 26 163 1.6 11.3 1.19 1.19 1.19 92 1010.8
20260905192018 26 121 1.6 11.3 1.17 1.17 1.17 93 1010.9
20260905191517 26 188 1.6 8.0 1.17 1.17 1.17 92 1010.8
20260905191118 26 160 1.6 9.7 1.17 1.17 1.17 92 1010.9
20260905190517 26 44 4.8 9.7 1.14 1.14 1.14 92 1010.8
20260905190018 26 32 4.8 6.4 1.14 1.14 1.14 92 1011.0
20260905185517 27 47 4.8 8.0 1.09 1.09 1.09 91 1011.1
20260905185017 27 92 3.2 9.7 1.07 1.07 1.07 88 1011.2
20260905184526 27 279 0.0 8.0 0.79 0.79 0.79 88 1011.2
20260905184017 27 279 0.0 8.0 0.61 0.61 0.61 88 1011.3
20260905183515 28 267 1.6 4.8 0.20 0.20 0.20 87 1011.2
20260905183015 29 263 0.0 4.8 0.00 0.00 0.00 85 1011.2
20260905182515 29 225 1.6 4.8 0.00 0.00 0.00 83 1011.3
20260905182014 30 283 0.0 6.4 0.00 0.00 0.00 81 1011.2
20260905181515 30 283 0.0 6.4 0.00 0.00 0.00 80 1011.2
20260905181014 30 74 0.0 8.0 0.00 0.00 0.00 77 1011.2
20260905180518 30 59 3.2 14.5 0.00 0.00 0.00 77 1011.2
20260905180014 31 44 1.6 8.0 0.00 0.00 0.00 72 1011.3
20260905175513 31 320 1.6 6.4 0.00 1.73 0.00 72 1011.4
20260905175013 31 285 0.0 9.7 0.00 1.73 0.00 71 1011.4
20260905174513 31 13 1.6 9.7 0.00 1.73 0.00 70 1011.4
20260905174014 31 21 0.0 3.2 0.00 1.73 0.00 72 1011.4
20260905173512 31 88 0.0 6.4 0.00 1.73 0.00 72 1011.4
20260905173012 31 349 0.0 6.4 0.00 1.73 0.00 73 1011.4
20260905172511 31 220 1.6 4.8 0.00 1.73 0.00 74 1011.5
20260905172011 31 281 0.0 6.4 0.00 1.73 0.00 75 1011.7
20260905171508 31 59 1.6 6.4 0.00 1.73 0.00 75 1011.7
20260905171007 30 333 1.6 6.4 0.00 1.73 0.00 77 1011.8
20260905170506 30 271 0.0 9.7 0.00 1.73 0.00 78 1011.8
20260905170005 30 45 4.8 9.7 0.00 1.73 0.00 78 1011.8
20260905165503 30 320 1.6 9.7 0.00 1.91 0.00 80 1011.9
20260905165003 30 13 3.2 9.7 0.00 1.91 0.00 79 1012.0
20260905164503 30 78 6.4 9.7 0.00 1.91 0.00 81 1012.0
20260905164002 30 30 1.6 6.4 0.00 1.91 0.00 83 1012.0
20260905163501 29 321 0.0 3.2 0.00 1.91 0.00 83 1012.0
20260905163002 29 307 0.0 4.8 0.00 1.91 0.00 82 1012.0
20260905162501 29 300 0.0 6.4 0.00 1.91 0.00 82 1012.1
20260905162100 29 279 1.6 6.4 0.00 1.91 0.00 81 1012.1
20260905161614 29 337 3.2 6.4 0.00 1.91 0.00 83 1012.1
20260905161100 29 350 3.2 6.4 0.00 1.91 0.00 81 1012.1
20260905160559 29 329 3.2 6.4 0.00 1.91 0.00 82 1012.1
20260905160100 29 355 0.0 3.2 0.00 1.91 0.00 83 1012.1
20260905155601 29 355 0.0 3.2 0.00 1.91 0.00 82 1012.2
20260905155058 29 355 0.0 3.2 0.00 1.91 0.00 82 1012.2
20260905154610 28 15 0.0 3.2 0.00 1.91 0.00 83 1012.1
20260905154102 28 15 0.0 3.2 0.00 1.91 0.00 83 1012.1
20260905153558 28 15 0.0 3.2 0.00 1.91 0.00 83 1012.0
20260905153058 28 19 1.6 4.8 0.00 1.91 0.00 83 1012.1
20260905152557 28 5 1.6 4.8 0.00 1.91 0.00 84 1012.1
20260905152057 29 331 0.0 3.2 0.00 1.91 0.00 84 1012.0
20260905151557 29 316 0.0 6.4 0.00 1.91 0.00 83 1012.1
20260905151056 29 253 0.0 6.4 0.00 1.91 0.00 82 1012.1
20260905150555 30 59 1.6 6.4 0.00 1.91 0.00 83 1012.0
20260905145555 30 39 1.6 4.8 0.00 1.91 0.00 83 1012.0
20260905145053 29 119 1.6 4.8 0.00 1.91 0.00 84 1012.0
20260905144552 28 128 0.0 3.2 0.00 1.91 0.00 86 1011.9
20260905144051 28 280 0.0 3.2 0.00 1.91 0.00 87 1012.0
20260905143550 28 280 0.0 3.2 0.00 1.91 0.00 87 1012.1
20260905143051 28 280 0.0 3.2 0.00 1.91 0.00 86 1012.1
20260905142552 28 348 0.0 4.8 0.00 1.91 0.00 86 1012.1
20260905142049 28 348 1.6 4.8 0.00 1.91 0.00 86 1012.0
20260905141548 28 115 0.0 3.2 0.00 1.91 0.00 85 1012.0
20260905141048 28 346 1.6 3.2 0.00 1.91 0.00 86 1012.1
20260905140546 28 85 0.0 3.2 0.00 1.91 0.00 88 1012.0
20260905140045 28 188 1.6 3.2 0.00 1.91 0.00 87 1012.0
20260905135543 28 38 0.0 3.2 0.00 1.91 0.00 89 1012.0
20260905135042 27 38 0.0 3.2 0.00 1.91 0.00 89 1011.9
20260905134540 27 153 0.0 3.2 0.00 1.91 0.00 90 1011.8
20260905134039 27 90 0.0 3.2 0.00 1.91 0.00 92 1011.8
20260905133538 27 90 0.0 3.2 0.00 1.91 0.00 93 1011.8
20260905133038 26 90 1.6 4.8 0.00 1.91 0.00 94 1011.9
20260905132533 26 96 0.0 4.8 0.00 1.91 0.00 95 1011.9
20260905132032 26 69 0.0 3.2 0.00 1.91 0.00 96 1011.8
20260905131530 26 69 0.0 3.2 0.00 1.91 0.00 96 1011.8
20260905131029 26 69 0.0 3.2 0.00 1.91 0.00 97 1011.8
20260905130528 25 69 0.0 3.2 0.00 1.91 0.00 97 1011.8
20260905130028 25 69 0.0 3.2 0.00 1.91 0.00 97 1011.8
20260905125528 25 98 0.0 3.2 0.00 1.91 0.00 97 1011.8
20260905125025 25 98 0.0 3.2 0.00 1.91 0.00 97 1011.6
20260905124523 24 98 0.0 3.2 0.00 1.91 0.00 97 1011.7
20260905124021 24 98 0.0 3.2 0.00 1.91 0.00 97 1011.7
20260905123520 23 98 0.0 3.2 0.00 1.91 0.00 97 1011.6
20260905123018 23 98 0.0 3.2 0.00 1.91 0.00 97 1011.5
20260905122518 23 96 0.0 3.2 0.00 1.91 0.00 97 1011.5
20260905122018 23 96 0.0 3.2 0.00 1.91 0.00 97 1011.5
20260905121516 23 96 0.0 3.2 0.00 1.91 0.00 97 1011.5
20260905121017 23 96 0.0 3.2 0.00 1.91 0.00 97 1011.5
20260905120518 23 96 0.0 3.2 0.00 1.91 0.00 96 1011.5
20260905120015 23 96 0.0 1.6 0.00 1.91 0.00 96 1011.4
20260905115516 23 96 0.0 0.0 0.00 1.91 0.00 96 1011.4
20260905115018 23 96 0.0 0.0 0.00 1.91 0.00 96 1011.3
20260905114513 23 96 0.0 3.2 0.00 1.91 0.00 96 1011.3
20260905114013 23 96 0.0 3.2 0.00 1.91 0.00 96 1011.3
20260905113515 23 323 0.0 0.0 0.00 1.91 0.00 96 1011.3
20260905113012 23 323 0.0 0.0 0.00 1.91 0.00 96 1011.2
20260905112512 23 323 0.0 0.0 0.00 1.91 0.00 96 1011.1
20260905112010 23 323 0.0 0.0 0.00 1.91 0.00 96 1011.1
20260905111510 23 323 0.0 0.0 0.00 1.91 0.00 96 1011.1
20260905111011 23 323 0.0 0.0 0.00 1.91 0.00 96 1011.1
20260905110510 23 323 0.0 3.2 0.00 1.91 0.00 96 1011.1
20260905110010 23 323 0.0 3.2 0.00 1.91 0.00 96 1011.1
20260905105510 23 323 0.0 3.2 0.00 1.91 0.00 96 1011.0
20260905105010 23 323 0.0 0.0 0.00 1.91 0.00 96 1011.0
20260905104510 23 323 0.0 3.2 0.00 1.91 0.00 96 1011.0
20260905104012 23 323 0.0 3.2 0.00 1.91 0.00 96 1011.0
20260905103512 23 323 0.0 3.2 0.00 1.91 0.00 96 1011.0
20260905103009 23 323 0.0 3.2 0.00 1.91 0.00 96 1011.0
20260905102509 23 323 0.0 3.2 0.00 1.91 0.00 97 1011.0
20260905102008 23 323 0.0 3.2 0.00 1.91 0.00 96 1011.0
20260905101508 23 323 0.0 3.2 0.00 1.91 0.00 96 1011.0
20260905101008 23 323 0.0 3.2 0.00 1.91 0.00 96 1011.0
20260905100508 23 323 0.0 3.2 0.00 1.91 0.00 96 1010.9
20260905100008 23 323 0.0 3.2 0.00 1.91 0.00 96 1010.9
20260905095507 23 323 0.0 3.2 0.00 1.91 0.00 96 1010.9
20260905095007 23 323 0.0 0.0 0.00 1.91 0.00 96 1010.9
20260905094508 23 323 0.0 0.0 0.00 1.91 0.00 96 1010.9
20260905094007 23 323 0.0 0.0 0.00 1.91 0.00 96 1010.9
20260905093507 23 323 0.0 1.6 0.00 1.91 0.00 96 1010.9
20260905093006 23 323 0.0 3.2 0.00 1.91 0.00 96 1010.8
20260905092508 23 323 0.0 3.2 0.00 1.91 0.00 96 1010.8
20260905092009 23 323 0.0 3.2 0.00 1.91 0.00 96 1010.8
20260905091510 23 323 0.0 0.0 0.00 1.91 0.00 96 1010.8
20260905091009 23 323 0.0 3.2 0.00 1.91 0.00 96 1010.8
20260905090506 23 323 0.0 3.2 0.00 1.91 0.00 96 1010.8
20260905090009 23 323 0.0 3.2 0.00 1.91 0.00 96 1010.7
20260905085505 23 323 0.0 3.2 0.00 1.91 0.00 96 1010.8
20260905085006 23 323 0.0 3.2 0.00 1.91 0.00 96 1010.8
20260905084505 23 323 0.0 0.0 0.00 1.91 0.00 96 1010.8
20260905084105 23 323 0.0 0.0 0.00 1.91 0.00 96 1010.8
20260905083505 23 323 0.0 0.0 0.00 1.91 0.00 96 1010.7
20260905083005 23 323 0.0 0.0 0.00 1.91 0.00 96 1010.7
20260905082504 23 323 0.0 0.0 0.00 1.91 0.00 96 1010.6
20260905082004 23 323 0.0 0.0 0.00 1.91 0.00 96 1010.6
20260905081503 23 323 0.0 0.0 0.00 1.91 0.00 96 1010.6
20260905081005 23 323 0.0 0.0 0.00 1.91 0.00 96 1010.5
20260905080503 23 323 0.0 0.0 0.00 1.91 0.00 96 1010.5
20260905080003 23 323 0.0 0.0 0.00 1.91 0.00 96 1010.6
20260905075503 23 323 0.0 0.0 0.00 1.91 0.00 96 1010.7
20260905075002 23 323 0.0 1.6 0.00 1.91 0.00 96 1010.7
20260905074504 23 323 0.0 1.6 0.00 1.91 0.00 96 1010.7
20260905074002 23 323 0.0 3.2 0.00 1.91 0.00 96 1010.7
20260905073502 23 323 0.0 3.2 0.00 1.91 0.00 96 1010.8
20260905073006 23 323 0.0 0.0 0.00 1.91 0.00 96 1010.8
20260905072503 23 323 0.0 3.2 0.00 1.91 0.00 96 1010.7
20260905072001 23 323 0.0 3.2 0.00 1.91 0.00 96 1010.7
20260905071612 23 323 0.0 3.2 0.00 1.91 0.00 96 1010.7
20260905071501 23 323 0.0 0.0 0.00 1.91 0.00 96 1010.7
20260905071001 23 323 0.0 3.2 0.00 1.91 0.00 96 1010.7
20260905070603 23 323 0.0 3.2 0.00 1.91 0.00 96 1010.7
20260905065603 23 323 0.0 0.0 0.00 1.91 0.00 96 1010.6
20260905065100 23 323 0.0 1.6 0.00 1.91 0.00 96 1010.5
20260905064618 23 323 0.0 3.2 0.00 1.91 0.00 96 1010.5
20260905064059 23 323 0.0 3.2 0.00 1.91 0.00 96 1010.5
20260905063558 23 323 0.0 3.2 0.00 1.91 0.00 96 1010.5
20260905063059 23 323 0.0 3.2 0.00 1.91 0.00 96 1010.5
20260905062558 23 323 0.0 3.2 0.00 1.91 0.00 96 1010.4
20260905062059 23 323 0.0 0.0 0.00 1.91 0.00 96 1010.5
20260905061605 23 323 0.0 0.0 0.00 1.91 0.00 96 1010.5
20260905061056 23 323 0.0 0.0 0.00 1.91 0.00 96 1010.5
20260905060600 23 323 0.0 0.0 0.00 1.91 0.00 96 1010.6
20260905060056 23 323 0.0 0.0 0.00 1.91 0.00 96 1010.6
20260905055555 23 323 0.0 0.0 0.00 2.18 0.00 96 1010.6
20260905055057 23 323 0.0 0.0 0.00 2.18 0.00 96 1010.6
20260905054703 23 323 0.0 0.0 0.00 2.18 0.00 96 1010.6
20260905054055 23 323 0.0 0.0 0.00 2.18 0.00 96 1010.5
20260905053554 23 323 0.0 0.0 0.00 2.18 0.00 96 1010.7
20260905053052 23 323 0.0 0.0 0.00 2.18 0.00 96 1010.8
20260905052552 23 323 0.0 0.0 0.00 2.18 0.00 96 1010.9
20260905052053 23 323 0.0 0.0 0.00 2.18 0.00 96 1010.9
20260905051552 23 323 0.0 0.0 0.00 2.18 0.00 96 1010.8
20260905051051 23 323 0.0 0.0 0.00 2.18 0.00 96 1010.9
20260905050549 23 323 0.0 0.0 0.00 2.18 0.00 96 1011.1
20260905050049 23 323 0.0 0.0 0.00 2.18 0.00 96 1011.1
20260905045547 23 323 0.0 0.0 0.00 2.26 2.18 96 1011.1
20260905045047 23 323 0.0 0.0 0.00 2.26 2.18 96 1011.2
20260905044557 23 323 0.0 0.0 0.00 2.26 2.18 96 1011.3
20260905044046 23 323 0.0 0.0 0.00 2.26 2.18 96 1011.3
20260905043549 23 323 0.0 0.0 0.00 2.26 2.18 96 1011.3
20260905043046 23 323 0.0 0.0 0.00 2.26 2.18 96 1011.3
20260905042545 23 323 0.0 0.0 0.00 2.26 2.18 96 1011.4
20260905042045 23 323 0.0 0.0 0.00 2.26 2.18 95 1011.5
20260905041545 23 323 0.0 0.0 0.00 2.26 2.18 95 1011.5
20260905041045 23 323 0.0 0.0 0.00 2.26 2.18 95 1011.5
20260905040546 23 323 0.0 0.0 0.00 2.26 2.18 95 1011.5
20260905040047 23 323 0.0 0.0 0.00 2.26 2.18 95 1011.5
20260905035545 23 323 0.0 1.6 0.00 2.26 2.18 95 1011.7
20260905035045 24 323 0.0 3.2 0.00 2.26 2.18 95 1011.8
20260905034550 24 323 0.0 3.2 0.00 2.26 2.18 95 1011.9
20260905034044 24 323 0.0 3.2 0.00 2.26 2.18 95 1011.9
20260905033544 24 323 0.0 0.0 0.00 2.26 2.18 95 1011.9
20260905033044 24 323 0.0 0.0 0.00 2.26 2.18 95 1011.9
20260905032546 24 323 0.0 0.0 0.00 2.26 2.18 95 1011.9
20260905032043 24 323 0.0 3.2 0.00 2.26 2.18 95 1011.9
20260905031643 24 323 0.0 3.2 0.00 2.26 2.18 95 1011.9
20260905031042 24 323 0.0 3.2 0.00 2.26 2.18 95 1011.8
20260905030544 24 323 0.0 3.2 0.00 2.26 2.18 95 1011.8
20260905030044 24 87 0.0 3.2 0.00 2.26 2.18 95 1011.8
20260905025542 24 87 0.0 3.2 0.00 2.26 2.18 95 1011.9
20260905025042 24 87 0.0 3.2 0.00 2.26 2.18 95 1011.9
20260905024555 24 103 0.0 4.8 0.00 2.26 2.18 95 1012.0
20260905024042 24 103 0.0 4.8 0.00 2.26 2.18 95 1012.0
20260905023542 24 94 1.6 4.8 0.00 2.26 2.18 95 1012.0
20260905023042 24 74 0.0 3.2 0.00 2.26 2.18 95 1011.9
20260905022541 24 74 0.0 3.2 0.00 2.26 2.18 95 1012.0
20260905022041 24 74 0.0 3.2 0.00 2.26 2.18 95 1011.9
20260905021541 25 74 0.0 3.2 0.00 2.26 2.18 95 1011.9
20260905021040 25 74 0.0 3.2 0.00 2.26 2.18 95 1011.9
20260905020544 25 74 0.0 3.2 0.00 2.26 2.18 95 1011.8
20260905020051 25 74 0.0 1.6 0.00 2.26 2.18 95 1011.7
20260905015541 25 74 0.0 0.0 0.00 2.26 2.18 95 1011.7
20260905015042 25 74 0.0 3.2 0.00 2.26 2.18 95 1011.7
20260905014540 25 74 0.0 3.2 0.00 2.26 2.18 95 1011.6
20260905014042 25 74 0.0 3.2 0.00 2.26 2.18 95 1011.5
20260905013541 25 74 0.0 3.2 0.00 2.26 2.18 95 1011.4
20260905013039 25 74 0.0 3.2 0.00 2.26 2.18 95 1011.4
20260905012542 25 74 0.0 1.6 0.00 2.26 2.18 95 1011.5